Location: Grisols
(45.0093°N, 3.1167°E)
Time: 01:22:31
(UTC+00:00)

Gbstr 26 Del rocket - Pass Details

Date: 21 October 2019
Orbit: 493 x 1264 km, 51.8° (Epoch: 13 November)

Event Time Altitude Azimuth Distance (km) Brightness Sun altitude
Rises 18:34:20 0° 299° (WNW) 3,390 8.0 -18.6°
Reaches altitude 10° 18:36:39 10° 297° (WNW) 2,563 7.2 -19.0°
Maximum altitude 18:42:45 67° 216° (SW) 1,111 4.3 -20.1°
Enters shadow 18:47:37 22° 140° (SE) 2,214 5.5 -20.9°
